Time,TemperatureF,DewpointF,PressureIn,WindDirection,WindDirectionDegrees,WindSpeedMPH,WindSpeedGustMPH,Humidity,HourlyPrecipIn,Conditions,Clouds,dailyrainin,SoftwareType,DateUTC
2013-05-15 00:03:00,53.0,-99.9,30.05,South,187,6.0,9.0,-999,-99.99,,,-99.99,,2013-05-15 04:03:00,
2013-05-15 00:12:00,53.0,-99.9,30.05,SSW,201,3.0,5.0,-999,-99.99,,,-99.99,,2013-05-15 04:12:00,
2013-05-15 00:24:00,53.0,-99.9,30.05,South,190,4.0,6.0,-999,-99.99,,,-99.99,,2013-05-15 04:24:00,
2013-05-15 00:33:00,53.0,-99.9,30.05,South,188,5.0,6.0,-999,-99.99,,,-99.99,,2013-05-15 04:33:00,
2013-05-15 00:43:00,52.0,-99.9,30.05,SSW,199,4.0,6.0,-999,-99.99,,,-99.99,,2013-05-15 04:43:00,
2013-05-15 00:52:00,52.0,-99.9,30.05,SSW,198,3.0,5.0,-999,-99.99,,,-99.99,,2013-05-15 04:52:00,
2013-05-15 01:02:00,51.0,-99.9,30.05,SSW,194,4.0,6.0,-999,-99.99,,,-99.99,,2013-05-15 05:02:00,
2013-05-15 01:12:00,51.0,-99.9,30.05,SSW,198,4.0,6.0,-999,-99.99,,,-99.99,,2013-05-15 05:12:00,
2013-05-15 01:22:00,51.0,-99.9,30.05,SSW,196,3.0,5.0,-999,-99.99,,,-99.99,,2013-05-15 05:22:00,
2013-05-15 01:32:00,50.0,-99.9,30.05,SSW,192,4.0,6.0,-999,-99.99,,,-99.99,,2013-05-15 05:32:00,
2013-05-15 01:42:00,50.0,-99.9,30.05,SSW,200,3.0,5.0,-999,-99.99,,,-99.99,,2013-05-15 05:42:00,
2013-05-15 01:52:00,50.0,-99.9,30.05,SSW,205,3.0,6.0,-999,-99.99,,,-99.99,,2013-05-15 05:52:00,
2013-05-15 02:02:00,50.0,-99.9,30.05,SSW,205,2.0,4.0,-999,-99.99,,,-99.99,,2013-05-15 06:02:00,
2013-05-15 02:12:00,49.0,-99.9,30.05,SSW,196,4.0,6.0,-999,-99.99,,,-99.99,,2013-05-15 06:12:00,
2013-05-15 02:22:00,49.0,-99.9,30.05,SSW,192,4.0,6.0,-999,-99.99,,,-99.99,,2013-05-15 06:22:00,
2013-05-15 02:32:00,49.0,-99.9,30.04,South,183,4.0,6.0,-999,-99.99,,,-99.99,,2013-05-15 06:32:00,
2013-05-15 02:42:00,49.0,-99.9,30.04,SW,219,4.0,6.0,-999,-99.99,,,-99.99,,2013-05-15 06:42:00,
2013-05-15 02:52:00,49.0,-99.9,30.04,SSW,205,3.0,5.0,-999,-99.99,,,-99.99,,2013-05-15 06:52:00,
2013-05-15 03:01:00,49.0,-99.9,30.04,SSW,200,2.0,4.0,-999,-99.99,,,-99.99,,2013-05-15 07:01:00,
2013-05-15 03:11:00,50.0,-99.9,30.03,South,190,4.0,5.0,-999,-99.99,,,-99.99,,2013-05-15 07:11:00,
2013-05-15 03:22:00,50.0,-99.9,30.03,SSW,199,2.0,4.0,-999,-99.99,,,-99.99,,2013-05-15 07:22:00,
2013-05-15 03:32:00,50.0,-99.9,30.04,SSW,194,2.0,4.0,-999,-99.99,,,-99.99,,2013-05-15 07:32:00,
2013-05-15 03:42:00,50.0,-99.9,30.04,SSW,192,3.0,5.0,-999,-99.99,,,-99.99,,2013-05-15 07:42:00,
2013-05-15 03:52:00,50.0,-99.9,30.03,SSW,213,2.0,4.0,-999,-99.99,,,-99.99,,2013-05-15 07:52:00,
2013-05-15 04:02:00,50.0,-99.9,30.03,SSW,194,2.0,3.0,-999,-99.99,,,-99.99,,2013-05-15 08:02:00,
2013-05-15 04:12:00,50.0,-99.9,30.03,SW,216,4.0,6.0,-999,-99.99,,,-99.99,,2013-05-15 08:12:00,
2013-05-15 04:21:00,51.0,-99.9,30.03,SW,216,4.0,6.0,-999,-99.99,,,-99.99,,2013-05-15 08:21:00,
2013-05-15 04:32:00,51.0,-99.9,30.03,SW,216,4.0,6.0,-999,-99.99,,,-99.99,,2013-05-15 08:32:00,
2013-05-15 04:42:00,51.0,-99.9,30.02,SSW,203,3.0,4.0,-999,-99.99,,,-99.99,,2013-05-15 08:42:00,
2013-05-15 04:53:00,51.0,-99.9,30.02,SW,218,4.0,6.0,-999,-99.99,,,-99.99,,2013-05-15 08:53:00,
2013-05-15 05:01:00,51.0,-99.9,30.03,SW,233,2.0,3.0,-999,-99.99,,,-99.99,,2013-05-15 09:01:00,
2013-05-15 05:12:00,52.0,-99.9,30.02,SSW,202,3.0,4.0,-999,-99.99,,,-99.99,,2013-05-15 09:12:00,
2013-05-15 05:22:00,52.0,-99.9,30.02,SSW,211,2.0,4.0,-999,-99.99,,,-99.99,,2013-05-15 09:22:00,
2013-05-15 05:33:00,52.0,-99.9,30.02,SSW,213,3.0,6.0,-999,-99.99,,,-99.99,,2013-05-15 09:33:00,
2013-05-15 05:42:00,52.0,-99.9,30.02,SSW,213,4.0,5.0,-999,-99.99,,,-99.99,,2013-05-15 09:42:00,
2013-05-15 05:53:00,52.0,-99.9,30.01,SSW,206,2.0,3.0,-999,-99.99,,,-99.99,,2013-05-15 09:53:00,
2013-05-15 06:02:00,52.0,-99.9,30.01,SSW,194,2.0,4.0,-999,-99.99,,,-99.99,,2013-05-15 10:02:00,
2013-05-15 06:13:00,52.0,-99.9,30.01,South,184,5.0,7.0,-999,-99.99,,,-99.99,,2013-05-15 10:13:00,
2013-05-15 06:23:00,52.0,-99.9,30.01,South,187,5.0,7.0,-999,-99.99,,,-99.99,,2013-05-15 10:23:00,
2013-05-15 06:32:00,52.0,-99.9,30.02,SSW,194,4.0,8.0,-999,-99.99,,,-99.99,,2013-05-15 10:32:00,
2013-05-15 06:43:00,52.0,-99.9,30.02,South,190,4.0,6.0,-999,-99.99,,,-99.99,,2013-05-15 10:43:00,
2013-05-15 06:53:00,52.0,-99.9,30.01,SSW,195,2.0,5.0,-999,-99.99,,,-99.99,,2013-05-15 10:53:00,
2013-05-15 07:19:00,53.0,-99.9,30.01,South,186,4.0,5.0,-999,-99.99,,,-99.99,,2013-05-15 11:19:00,
2013-05-15 07:29:00,53.0,-99.9,30.01,South,191,3.0,6.0,-999,-99.99,,,-99.99,,2013-05-15 11:29:00,
2013-05-15 07:40:00,53.0,-99.9,30.02,South,178,6.0,7.0,-999,-99.99,,,-99.99,,2013-05-15 11:40:00,
2013-05-15 07:50:00,54.0,-99.9,30.01,South,186,4.0,6.0,-999,-99.99,,,-99.99,,2013-05-15 11:50:00,
2013-05-15 08:11:00,54.0,-99.9,30.01,South,175,2.0,4.0,-999,-99.99,,,-99.99,,2013-05-15 12:11:00,
2013-05-15 08:17:00,55.0,-99.9,30.00,South,175,3.0,4.0,-999,-99.99,,,-99.99,,2013-05-15 12:17:00,
2013-05-15 08:30:00,56.0,-99.9,30.00,South,175,6.0,8.0,-999,-99.99,,,-99.99,,2013-05-15 12:30:00,
2013-05-15 08:38:00,56.0,-99.9,30.00,South,181,3.0,6.0,-999,-99.99,,,-99.99,,2013-05-15 12:38:00,
2013-05-15 08:49:00,57.0,-99.9,29.99,South,172,6.0,10.0,-999,-99.99,,,-99.99,,2013-05-15 12:49:00,
2013-05-15 08:58:00,58.0,-99.9,29.99,South,189,5.0,9.0,-999,-99.99,,,-99.99,,2013-05-15 12:58:00,
2013-05-15 09:12:00,58.0,-99.9,29.99,SSW,201,6.0,14.0,-999,-99.99,,,-99.99,,2013-05-15 13:12:00,
2013-05-15 09:19:00,58.0,-99.9,29.98,SSE,168,6.0,10.0,-999,-99.99,,,-99.99,,2013-05-15 13:19:00,
2013-05-15 09:37:00,59.0,-99.9,29.98,South,177,6.0,10.0,-999,-99.99,,,-99.99,,2013-05-15 13:37:00,
2013-05-15 09:48:00,60.0,-99.9,29.97,SSE,156,7.0,12.0,-999,-99.99,,,-99.99,,2013-05-15 13:48:00,
2013-05-15 10:00:00,60.0,-99.9,29.96,SSE,165,7.0,13.0,-999,-99.99,,,-99.99,,2013-05-15 14:00:00,
2013-05-15 10:09:00,60.0,-99.9,29.96,SSE,153,8.0,12.0,-999,-99.99,,,-99.99,,2013-05-15 14:09:00,
2013-05-15 10:14:00,61.0,-99.9,29.95,SSE,150,10.0,16.0,-999,-99.99,,,-99.99,,2013-05-15 14:14:00,
2013-05-15 10:28:00,61.0,-99.9,29.94,SE,146,7.0,12.0,-999,-99.99,,,-99.99,,2013-05-15 14:28:00,
2013-05-15 10:39:00,61.0,-99.9,29.93,ESE,118,10.0,13.0,-999,-99.99,,,-99.99,,2013-05-15 14:39:00,
2013-05-15 10:52:00,62.0,-99.9,29.93,South,171,6.0,12.0,-999,-99.99,,,-99.99,,2013-05-15 14:52:00,
2013-05-15 11:00:00,61.0,-99.9,29.95,SSE,153,9.0,14.0,-999,-99.99,,,-99.99,,2013-05-15 15:00:00,
2013-05-15 11:11:00,61.0,-99.9,29.95,SE,128,7.0,10.0,-999,-99.99,,,-99.99,,2013-05-15 15:11:00,
2013-05-15 11:16:00,60.0,-99.9,29.94,SE,145,9.0,14.0,-999,-99.99,,,-99.99,,2013-05-15 15:16:00,
2013-05-15 11:29:00,59.0,-99.9,29.93,SE,140,9.0,13.0,-999,-99.99,,,-99.99,,2013-05-15 15:29:00,
2013-05-15 11:41:00,59.0,-99.9,29.93,SE,144,7.0,11.0,-999,-99.99,,,-99.99,,2013-05-15 15:41:00,
2013-05-15 11:50:00,59.0,-99.9,29.93,SE,143,7.0,13.0,-999,-99.99,,,-99.99,,2013-05-15 15:50:00,
2013-05-15 12:10:00,59.0,-99.9,29.93,SE,128,6.0,8.0,-999,-99.99,,,-99.99,,2013-05-15 16:10:00,
2013-05-15 12:40:00,58.0,-99.9,29.90,SE,126,5.0,9.0,-999,-99.99,,,-99.99,,2013-05-15 16:40:00,
2013-05-15 12:52:00,58.0,-99.9,29.90,SE,129,7.0,10.0,-999,-99.99,,,-99.99,,2013-05-15 16:52:00,
2013-05-15 13:02:00,58.0,-99.9,29.90,SE,132,7.0,10.0,-999,-99.99,,,-99.99,,2013-05-15 17:02:00,
2013-05-15 13:13:00,58.0,-99.9,29.88,SE,130,8.0,14.0,-999,-99.99,,,-99.99,,2013-05-15 17:13:00,
2013-05-15 13:21:00,58.0,-99.9,29.85,SE,137,11.0,16.0,-999,-99.99,,,-99.99,,2013-05-15 17:21:00,
2013-05-15 13:29:00,59.0,-99.9,29.86,SE,145,9.0,14.0,-999,-99.99,,,-99.99,,2013-05-15 17:29:00,
2013-05-15 13:49:00,60.0,-99.9,29.86,SSE,148,9.0,12.0,-999,-99.99,,,-99.99,,2013-05-15 17:49:00,
2013-05-15 13:59:00,61.0,-99.9,29.85,South,170,8.0,11.0,-999,-99.99,,,-99.99,,2013-05-15 17:59:00,
2013-05-15 14:17:00,61.0,-99.9,29.85,SSE,168,7.0,12.0,-999,-99.99,,,-99.99,,2013-05-15 18:17:00,
2013-05-15 14:28:00,62.0,-99.9,29.86,SSE,153,5.0,7.0,-999,-99.99,,,-99.99,,2013-05-15 18:28:00,
2013-05-15 14:38:00,62.0,-99.9,29.85,SSE,166,5.0,10.0,-999,-99.99,,,-99.99,,2013-05-15 18:38:00,
2013-05-15 14:50:00,62.0,-99.9,29.85,SE,137,8.0,12.0,-999,-99.99,,,-99.99,,2013-05-15 18:50:00,
2013-05-15 14:59:00,62.0,-99.9,29.84,SE,143,5.0,7.0,-999,-99.99,,,-99.99,,2013-05-15 18:59:00,
2013-05-15 15:09:00,62.0,-99.9,29.83,SE,145,6.0,9.0,-999,-99.99,,,-99.99,,2013-05-15 19:09:00,
2013-05-15 15:16:00,62.0,-99.9,29.82,SSE,158,8.0,11.0,-999,-99.99,,,-99.99,,2013-05-15 19:16:00,
2013-05-15 15:31:00,63.0,-99.9,29.80,ESE,111,7.0,10.0,-999,-99.99,,,-99.99,,2013-05-15 19:31:00,
2013-05-15 15:39:00,63.0,-99.9,29.79,SE,126,6.0,10.0,-999,-99.99,,,-99.99,,2013-05-15 19:39:00,
2013-05-15 15:50:00,64.0,-99.9,29.77,SSE,152,11.0,17.0,-999,-99.99,,,-99.99,,2013-05-15 19:50:00,
2013-05-15 15:59:00,65.0,-99.9,29.74,SE,134,7.0,11.0,-999,-99.99,,,-99.99,,2013-05-15 19:59:00,
2013-05-15 16:10:00,64.0,-99.9,29.74,SE,137,7.0,12.0,-999,-99.99,,,-99.99,,2013-05-15 20:10:00,
2013-05-15 16:21:00,64.0,-99.9,29.73,SSE,168,7.0,11.0,-999,-99.99,,,-99.99,,2013-05-15 20:21:00,
2013-05-15 16:31:00,66.0,-99.9,29.73,SE,146,6.0,10.0,-999,-99.99,,,-99.99,,2013-05-15 20:31:00,
2013-05-15 16:40:00,66.0,-99.9,29.72,SE,144,9.0,12.0,-999,-99.99,,,-99.99,,2013-05-15 20:40:00,
2013-05-15 17:00:00,68.0,-99.9,29.69,SE,131,8.0,12.0,-999,-99.99,,,-99.99,,2013-05-15 21:00:00,
2013-05-15 17:09:00,68.0,-99.9,29.69,SE,145,6.0,11.0,-999,-99.99,,,-99.99,,2013-05-15 21:09:00,
2013-05-15 17:21:00,69.0,-99.9,29.69,South,174,8.0,15.0,-999,-99.99,,,-99.99,,2013-05-15 21:21:00,
2013-05-15 17:29:00,70.0,-99.9,29.68,South,172,6.0,9.0,-999,-99.99,,,-99.99,,2013-05-15 21:29:00,
2013-05-15 17:42:00,70.0,-99.9,29.69,South,169,5.0,10.0,-999,-99.99,,,-99.99,,2013-05-15 21:42:00,
2013-05-15 17:54:00,69.0,-99.9,29.70,SSE,155,4.0,7.0,-999,-99.99,,,-99.99,,2013-05-15 21:54:00,
2013-05-15 18:01:00,71.0,-99.9,29.69,SSE,148,3.0,6.0,-999,-99.99,,,-99.99,,2013-05-15 22:01:00,
2013-05-15 18:12:00,72.0,-99.9,29.69,South,178,4.0,6.0,-999,-99.99,,,-99.99,,2013-05-15 22:12:00,
2013-05-15 18:20:00,72.0,-99.9,29.68,SSE,168,4.0,8.0,-999,-99.99,,,-99.99,,2013-05-15 22:20:00,
2013-05-15 18:31:00,72.0,-99.9,29.67,SSE,162,6.0,9.0,-999,-99.99,,,-99.99,,2013-05-15 22:31:00,
2013-05-15 18:43:00,72.0,-99.9,29.67,SSE,164,6.0,10.0,-999,-99.99,,,-99.99,,2013-05-15 22:43:00,
2013-05-15 18:53:00,73.0,-99.9,29.67,SW,218,3.0,5.0,-999,-99.99,,,-99.99,,2013-05-15 22:53:00,
2013-05-15 19:01:00,75.0,-99.9,29.67,WSW,239,4.0,8.0,-999,-99.99,,,-99.99,,2013-05-15 23:01:00,
2013-05-15 19:18:00,74.0,-99.9,29.67,SW,215,6.0,10.0,-999,-99.99,,,-99.99,,2013-05-15 23:18:00,
2013-05-15 19:40:00,73.0,-99.9,29.67,SSW,211,7.0,11.0,-999,-99.99,,,-99.99,,2013-05-15 23:40:00,
2013-05-15 19:51:00,73.0,-99.9,29.67,SW,217,9.0,14.0,-999,-99.99,,,-99.99,,2013-05-15 23:51:00,
2013-05-15 20:01:00,72.0,-99.9,29.66,SSW,213,9.0,16.0,-999,-99.99,,,-99.99,,2013-05-16 00:01:00,
2013-05-15 20:09:00,72.0,-99.9,29.66,SSW,210,7.0,13.0,-999,-99.99,,,-99.99,,2013-05-16 00:09:00,
2013-05-15 20:19:00,72.0,-99.9,29.66,SSW,212,8.0,14.0,-999,-99.99,,,-99.99,,2013-05-16 00:19:00,
2013-05-15 20:27:00,71.0,-99.9,29.66,SSW,207,9.0,17.0,-999,-99.99,,,-99.99,,2013-05-16 00:27:00,
2013-05-15 20:37:00,71.0,-99.9,29.66,SSW,205,5.0,8.0,-999,-99.99,,,-99.99,,2013-05-16 00:37:00,
2013-05-15 20:52:00,71.0,-99.9,29.67,SSW,207,2.0,6.0,-999,-99.99,,,-99.99,,2013-05-16 00:52:00,
2013-05-15 20:59:00,70.0,-99.9,29.67,SSW,201,3.0,5.0,-999,-99.99,,,-99.99,,2013-05-16 00:59:00,
2013-05-15 21:09:00,70.0,-99.9,29.67,SSW,200,4.0,7.0,-999,-99.99,,,-99.99,,2013-05-16 01:09:00,
2013-05-15 21:19:00,70.0,-99.9,29.67,SW,217,4.0,6.0,-999,-99.99,,,-99.99,,2013-05-16 01:19:00,
2013-05-15 21:30:00,69.0,-99.9,29.67,SW,219,3.0,6.0,-999,-99.99,,,-99.99,,2013-05-16 01:30:00,
2013-05-15 21:50:00,69.0,-99.9,29.68,SSW,194,3.0,4.0,-999,-99.99,,,-99.99,,2013-05-16 01:50:00,
2013-05-15 22:02:00,69.0,-99.9,29.67,SSW,204,3.0,5.0,-999,-99.99,,,-99.99,,2013-05-16 02:02:00,
2013-05-15 22:18:00,69.0,-99.9,29.68,SSW,203,3.0,5.0,-999,-99.99,,,-99.99,,2013-05-16 02:18:00,
2013-05-15 22:40:00,68.0,-99.9,29.68,South,191,4.0,7.0,-999,-99.99,,,-99.99,,2013-05-16 02:40:00,
2013-05-15 22:56:00,68.0,-99.9,29.68,South,191,4.0,7.0,-999,-99.99,,,-99.99,,2013-05-16 02:56:00,
2013-05-15 23:07:00,66.0,-99.9,29.69,NNW,345,14.0,16.0,-999,-99.99,,,-99.99,,2013-05-16 03:07:00,
2013-05-15 23:17:00,67.0,-99.9,29.70,NNW,332,10.0,12.0,-999,-99.99,,,-99.99,,2013-05-16 03:17:00,
2013-05-15 23:28:00,66.0,-99.9,29.71,West,273,3.0,4.0,-999,-99.99,,,-99.99,,2013-05-16 03:28:00,
2013-05-15 23:41:00,67.0,-99.9,29.70,WSW,258,3.0,4.0,-999,-99.99,,,-99.99,,2013-05-16 03:41:00,